Wind_Speed
20 20 20 20 21 21 21 20 20 20 21 21 22 23 23 23 24 24 24 23 23 23 23 23 23 23 23 23 23 24 24 24 24 23 23 22 22 21 21 20 19 18 17 17 16 15 15 14 14
22 22 22 22 23 23 22 22 22 22 23 23 24 24 25 25 25 25 25 25 25 25 25 25 25 25 25 25 24 24 25 25 25 25 25 24 24 23 22 21 21 20 19 18 18 17 17 16 16
23 23 24 24 24 24 24 24 24 24 25 25 25 26 26 26 26 27 27 27 27 28 28 28 27 27 27 27 26 26 26 26 27 27 26 26 25 25 24 24 23 22 21 20 20 19 18 18 17
23 24 25 25 26 26 26 26 26 27 27 27 28 28 28 28 29 29 29 30 30 30 30 30 30 30 30 29 29 28 28 28 29 29 28 28 27 26 26 25 24 24 23 22 22 21 20 19 19
23 24 25 26 26 27 27 27 28 29 29 29 30 30 30 31 31 31 32 33 33 33 33 33 33 33 33 32 32 31 30 30 30 30 30 30 29 29 28 27 26 25 25 24 24 23 22 21 21
23 24 26 26 27 28 28 29 29 30 31 31 32 32 32 33 34 34 35 35 36 36 36 36 36 36 36 36 35 34 33 33 33 33 32 31 31 30 30 29 28 28 27 26 25 25 24 23 22
24 25 26 27 28 29 29 30 31 32 33 33 33 34 34 35 36 36 37 37 38 38 39 39 39 39 39 39 39 38 37 36 35 35 35 34 33 33 32 31 31 30 29 28 28 27 26 25 24
24 25 26 27 28 29 30 31 32 33 34 35 35 36 36 37 38 38 39 40 40 41 41 41 42 42 42 42 42 41 40 39 38 38 37 36 36 35 34 34 33 32 31 31 30 29 28 27 26
23 24 25 26 28 29 30 31 32 33 34 35 37 37 37 38 39 39 40 41 42 43 43 44 44 44 44 44 44 44 43 42 41 41 40 39 39 38 37 36 35 35 34 33 32 31 30 30 29
21 23 24 25 27 28 30 31 32 33 34 36 37 37 38 38 39 40 41 42 43 43 44 45 46 46 46 46 46 46 46 45 44 43 42 42 41 40 39 39 38 37 36 35 34 33 33 32 31
20 22 23 25 26 28 29 30 32 33 34 35 36 37 37 38 38 39 40 42 43 44 45 46 47 48 48 48 48 48 48 47 47 46 46 45 44 43 42 42 40 40 39 38 36 35 35 34 32
20 22 23 25 26 27 28 29 31 32 34 34 35 36 36 37 38 39 40 41 43 44 45 46 47 49 50 50 50 49 49 49 49 48 48 47 46 46 45 44 43 42 42 41 39 38 37 36 35
20 21 23 24 26 27 28 29 30 32 33 34 35 36 37 38 39 39 40 41 42 44 45 46 47 48 50 52 52 51 51 51 50 50 50 49 48 48 48 47 45 45 44 43 42 40 40 38 37
19 21 23 24 26 27 28 30 31 32 33 34 35 36 37 39 39 39 41 41 42 43 44 46 47 48 50 51 53 52 52 52 52 52 52 51 51 50 50 49 48 47 46 45 44 43 42 41 40
19 20 22 23 25 27 28 29 31 31 32 33 34 35 36 37 39 39 40 41 41 42 44 46 47 48 50 51 53 53 53 54 53 53 53 53 52 52 52 51 50 49 49 48 47 46 45 44 43
20 21 22 23 25 26 28 28 29 30 30 31 33 34 34 36 38 39 40 41 42 42 43 45 46 47 49 50 52 53 54 54 53 53 54 54 54 54 53 52 52 52 51 50 49 48 47 46 46
20 22 23 23 25 26 27 28 28 29 30 30 32 33 33 34 36 37 38 39 40 41 41 42 44 46 47 49 51 52 54 54 55 55 56 56 56 55 54 54 53 53 53 52 51 51 50 49 47
21 22 22 23 24 25 27 27 27 29 29 30 31 31 32 33 33 35 36 37 37 38 38 39 41 43 45 47 49 52 53 54 56 56 56 57 57 57 56 55 54 54 54 54 53 53 52 51 50
22 23 23 23 24 24 25 26 27 28 29 29 30 30 31 32 32 33 33 35 35 36 36 37 38 41 44 46 48 50 52 53 55 56 57 58 58 58 57 57 56 56 55 55 54 54 54 53 52
22 23 23 23 24 25 25 25 26 27 28 29 29 28 29 30 30 31 31 31 32 34 35 37 39 40 43 45 47 49 49 50 52 53 55 57 57 57 58 57 56 56 56 56 56 56 55 55 54
22 23 23 23 23 24 25 25 26 26 28 28 28 27 27 28 28 28 30 30 31 32 34 37 38 39 41 42 44 46 47 49 50 52 52 53 53 54 56 57 57 57 57 57 56 56 57 56 56
22 22 23 24 24 24 25 25 24 25 26 27 26 25 25 26 27 28 29 29 30 31 33 35 37 37 38 39 42 44 45 46 48 49 49 50 52 53 55 55 57 56 55 55 56 56 56 56 56
22 23 23 24 25 25 24 25 25 25 25 25 25 25 25 26 27 28 28 29 30 31 31 32 35 36 37 38 39 42 42 44 45 46 47 48 49 50 52 53 55 55 55 54 55 55 55 55 56
23 23 24 24 25 25 24 25 25 25 25 25 24 24 25 26 26 27 27 28 28 29 31 32 33 35 37 38 38 40 42 43 44 45 46 47 47 47 48 51 53 54 54 53 53 54 54 54 55
23 24 25 26 26 26 25 25 25 25 25 24 24 24 25 26 26 26 25 26 27 29 30 32 32 33 35 37 37 39 40 42 42 44 45 46 46 46 47 48 50 52 53 53 53 51 51 52 53
23 24 25 27 28 27 26 25 24 25 25 25 25 25 25 26 26 26 26 27 27 29 30 31 31 31 32 33 35 37 40 41 42 43 45 46 46 45 46 47 48 50 51 51 50 50 49 50 49
24 24 26 27 27 27 26 25 24 24 25 25 25 24 25 26 26 26 26 27 29 30 30 29 29 29 30 31 33 34 35 38 42 43 43 44 45 45 44 45 46 47 48 48 48 48 48 48 48
25 25 26 27 28 28 27 26 26 25 25 25 25 25 25 25 26 26 26 27 27 27 28 28 28 28 29 30 32 33 34 35 37 39 41 43 43 43 44 43 45 46 46 46 47 47 48 48 46
25 26 27 27 28 28 29 27 27 27 27 26 26 26 27 26 27 26 26 27 28 28 29 29 29 28 28 29 30 31 32 33 34 35 37 38 40 41 43 43 44 44 44 44 45 45 45 46 46
26 27 27 27 28 27 28 28 27 27 27 27 27 27 27 27 27 26 26 27 28 29 28 28 29 28 27 27 28 29 30 30 31 32 34 36 37 39 40 41 41 42 43 43 43 43 44 45 45
Wind_Direction
254 255 254 254 255 255 257 258 258 257 256 255 255 254 253 252 251 252 251 250 249 249 248 247 246 245 243 242 242 242 242 242 242 242 242 241 241 241 242 243 244 246 247 248 250 251 254 258 261
255 255 255 255 256 257 258 258 258 257 257 257 257 256 255 254 253 252 251 250 249 249 248 248 247 246 244 244 243 243 243 242 242 243 243 243 243 243 244 244 246 248 249 250 252 253 255 258 260
255 255 256 256 257 259 260 259 259 258 257 257 257 257 256 255 254 252 251 250 250 249 249 248 248 248 247 245 245 245 245 244 243 243 243 244 244 244 245 246 247 248 251 252 253 255 257 258 259
255 256 256 257 258 260 261 260 260 259 258 257 257 257 257 256 255 254 253 252 251 251 250 249 249 249 249 248 247 246 246 246 245 245 245 246 246 246 246 247 248 249 251 252 254 256 259 260 260
257 257 258 259 260 261 261 261 261 260 259 258 258 258 258 257 257 256 254 253 252 251 250 250 250 249 249 249 249 247 247 247 247 247 246 247 248 248 248 248 248 250 252 253 254 256 259 260 261
260 260 261 262 262 261 261 261 261 261 261 260 259 259 259 259 258 257 256 254 253 252 251 250 249 249 249 249 249 249 248 247 247 248 247 248 249 250 249 248 248 250 253 254 255 257 259 260 261
263 262 264 264 263 262 262 262 262 262 262 262 262 261 261 260 260 258 257 255 254 253 252 251 250 249 249 248 248 249 249 248 247 248 248 248 249 250 250 250 250 250 252 254 255 257 258 260 260
266 266 266 265 265 264 264 264 264 264 263 263 264 264 263 262 261 260 259 257 255 254 253 252 251 250 250 249 248 248 248 248 248 248 248 249 249 249 250 251 252 251 252 253 255 257 259 260 260
269 269 269 268 267 267 266 266 267 267 266 266 266 266 266 265 263 262 260 259 257 256 255 254 252 252 251 250 248 247 247 247 248 248 248 248 249 250 250 251 251 252 253 254 254 256 259 260 260
270 270 271 270 269 269 269 269 269 269 269 269 268 268 268 267 266 264 262 261 260 258 256 255 253 251 250 250 248 247 247 246 247 248 248 248 249 250 251 251 251 253 253 254 255 255 257 259 260
273 274 274 273 273 273 273 272 272 271 271 271 271 270 269 268 267 265 263 262 262 260 258 256 254 252 250 249 248 247 247 247 247 248 248 248 249 250 251 251 252 253 253 254 255 255 257 257 259
277 277 276 277 277 277 277 276 275 274 275 274 273 271 270 269 269 267 265 263 263 261 260 258 256 253 250 249 248 247 246 246 247 247 249 249 249 249 250 251 252 252 253 254 255 256 257 257 258
282 281 280 281 281 281 281 280 278 277 278 277 275 273 271 270 270 268 266 264 264 262 260 258 257 255 250 248 248 247 247 246 247 247 248 249 249 249 250 251 251 252 253 254 254 255 256 257 258
288 286 285 284 284 285 285 284 283 280 280 278 276 274 272 272 272 270 268 266 265 263 260 259 258 255 251 248 247 247 246 245 246 247 248 249 249 250 250 251 251 251 252 253 253 254 255 256 257
296 293 291 290 289 289 289 288 285 283 282 281 279 277 275 274 273 272 270 268 267 265 263 260 258 255 252 250 249 248 246 246 246 247 249 249 250 250 250 250 250 251 251 252 252 253 254 255 256
300 299 298 295 295 295 293 291 288 286 285 284 282 279 277 277 276 273 271 269 268 266 263 260 257 255 252 251 250 249 247 246 246 247 248 249 250 250 250 250 250 250 250 251 252 252 253 254 255
304 304 302 299 298 299 297 297 293 289 288 288 285 282 280 280 278 274 272 270 269 268 265 261 258 255 252 252 251 250 248 247 247 248 248 249 249 250 251 250 250 251 250 250 250 251 252 253 254
307 307 305 302 301 299 299 300 298 294 292 291 289 286 283 283 280 276 273 272 271 270 267 263 260 257 254 254 253 251 249 247 248 249 249 248 248 249 250 250 250 250 250 251 250 251 251 252 253
308 310 308 307 304 302 302 302 301 300 298 295 292 289 286 285 282 279 276 274 272 269 267 265 262 260 258 257 254 251 250 249 249 249 249 249 248 249 249 249 249 249 250 251 251 251 250 251 252
309 311 311 310 307 306 306 305 305 305 305 300 295 292 289 285 282 281 279 277 273 271 269 267 264 264 261 259 256 252 251 250 249 249 248 249 248 248 248 248 249 249 249 250 251 251 251 251 251
310 312 313 312 312 310 308 308 309 309 309 305 299 296 293 289 286 284 281 279 276 274 272 270 267 267 264 261 257 254 252 251 251 251 249 248 247 248 248 248 249 249 249 250 251 252 251 251 250
311 312 314 313 313 315 313 312 313 311 311 309 304 298 295 291 290 288 284 282 280 280 277 274 271 269 265 263 259 255 253 252 253 251 249 248 249 250 250 250 249 249 250 250 250 251 251 251 249
310 312 313 313 313 315 317 312 314 315 313 311 308 303 300 296 293 292 289 286 285 283 281 278 274 270 267 265 263 258 256 255 255 253 251 251 251 251 251 251 250 250 250 251 251 250 250 250 249
308 311 312 313 314 316 317 316 318 318 315 313 309 304 304 301 298 295 293 289 288 286 284 281 276 272 268 267 266 262 259 257 255 254 253 252 252 253 254 253 251 251 250 250 250 250 248 248 248
308 310 313 315 316 318 318 317 321 318 316 313 311 309 308 305 302 301 297 294 292 291 287 284 279 276 270 268 267 265 263 258 255 254 254 254 253 254 254 254 253 251 250 249 248 249 247 246 247
307 310 312 315 316 317 318 319 321 318 317 315 314 313 311 309 306 305 304 302 297 294 292 289 284 281 274 270 269 267 265 260 256 255 255 255 254 255 254 254 253 250 248 247 247 247 246 246 247
305 308 311 311 313 315 317 318 319 318 316 317 316 314 313 311 310 309 309 308 304 299 296 294 291 285 279 275 271 269 267 261 256 255 255 256 254 254 253 253 252 249 246 246 246 245 245 246 247
302 306 309 310 312 314 317 319 319 318 316 317 318 315 314 314 312 310 309 309 307 303 301 298 293 289 286 280 276 272 269 264 259 257 257 257 254 253 253 252 251 250 248 247 246 245 245 246 246
301 303 306 307 308 311 313 316 318 317 317 318 318 316 316 314 312 312 310 309 309 308 306 301 297 291 289 284 279 273 268 263 261 259 259 257 256 253 252 253 250 248 247 247 246 246 247 247 246
298 302 304 305 306 308 310 313 315 316 316 317 317 317 316 314 315 314 311 311 310 310 308 303 298 294 294 289 282 275 267 264 263 262 260 257 256 254 252 252 250 247 247 246 246 246 246 246 245
Height
5829 5829 5830 5831 5832 5833 5833 5835 5835 5836 5836 5836 5837 5837 5838 5839 5841 5843 5843 5842 5843 5844 5844 5845 5846 5847 5848 5849 5850 5851 5852 5853 5853 5854 5855 5856 5856 5857 5857 5858 5858 5858 5859 5859 5859 5859 5859 5859 5859
5824 5825 5827 5827 5827 5828 5830 5830 5830 5831 5831 5831 5832 5832 5833 5834 5835 5836 5836 5837 5838 5839 5840 5841 5842 5843 5844 5845 5846 5847 5848 5849 5849 5850 5851 5852 5853 5853 5854 5854 5855 5855 5855 5856 5856 5856 5856 5856 5856
5820 5820 5822 5822 5822 5824 5825 5825 5825 5825 5826 5826 5826 5827 5828 5829 5829 5830 5830 5831 5832 5833 5834 5835 5836 5838 5839 5840 5841 5842 5843 5844 5845 5846 5847 5848 5849 5849 5850 5851 5851 5852 5852 5852 5853 5853 5853 5853 5853
5815 5816 5817 5817 5818 5819 5819 5819 5819 5819 5820 5820 5820 5821 5822 5823 5823 5824 5824 5825 5826 5827 5828 5830 5831 5832 5833 5835 5836 5837 5838 5839 5840 5841 5842 5843 5844 5845 5846 5846 5847 5848 5848 5849 5849 5849 5849 5849 5849
5810 5810 5811 5811 5812 5812 5813 5813 5813 5813 5813 5814 5814 5814 5815 5816 5816 5817 5818 5818 5819 5820 5821 5823 5824 5826 5827 5828 5830 5831 5832 5834 5835 5836 5837 5838 5839 5840 5841 5842 5842 5843 5844 5844 5845 5845 5845 5845 5846
5804 5805 5805 5805 5806 5806 5806 5806 5806 5806 5806 5807 5807 5807 5808 5808 5809 5809 5810 5811 5812 5813 5814 5815 5817 5818 5820 5821 5823 5824 5826 5827 5829 5830 5831 5833 5834 5835 5836 5837 5837 5838 5839 5839 5840 5841 5841 5841 5841
5799 5799 5799 5799 5799 5799 5800 5799 5799 5799 5799 5799 5799 5800 5800 5801 5801 5801 5802 5802 5803 5804 5805 5807 5808 5810 5811 5813 5815 5817 5819 5820 5822 5823 5825 5826 5828 5829 5830 5831 5832 5833 5834 5834 5835 5836 5836 5837 5837
5792 5793 5792 5792 5792 5792 5792 5791 5791 5791 5791 5791 5791 5791 5792 5792 5792 5792 5792 5793 5793 5794 5796 5798 5799 5801 5803 5805 5807 5809 5811 5813 5814 5816 5818 5820 5821 5822 5824 5825 5826 5827 5828 5829 5830 5830 5831 5831 5832
5786 5787 5785 5785 5785 5785 5784 5784 5783 5783 5783 5782 5781 5782 5782 5782 5782 5782 5782 5783 5783 5784 5785 5787 5789 5791 5793 5795 5797 5800 5802 5804 5806 5808 5810 5812 5813 5815 5817 5818 5820 5821 5822 5823 5824 5824 5825 5825 5826
5780 5780 5779 5779 5778 5777 5776 5776 5775 5775 5774 5773 5772 5772 5771 5771 5772 5772 5772 5772 5772 5773 5774 5776 5778 5780 5782 5784 5787 5790 5792 5795 5797 5799 5801 5803 5805 5807 5809 5811 5812 5814 5815 5816 5817 5818 5819 5819 5820
5774 5773 5773 5771 5770 5769 5768 5768 5767 5766 5765 5764 5763 5762 5761 5761 5761 5761 5761 5761 5761 5761 5762 5763 5766 5768 5770 5773 5776 5778 5782 5785 5787 5790 5792 5794 5797 5799 5801 5803 5805 5806 5808 5809 5810 5811 5812 5813 5813
5768 5767 5766 5764 5763 5762 5760 5759 5758 5756 5756 5754 5753 5752 5751 5750 5750 5749 5750 5750 5750 5750 5750 5751 5752 5754 5757 5760 5764 5766 5770 5774 5777 5780 5782 5785 5787 5790 5792 5794 5796 5798 5800 5802 5803 5804 5805 5805 5806
5762 5761 5759 5757 5756 5754 5752 5750 5748 5747 5745 5743 5742 5740 5739 5739 5738 5738 5738 5738 5737 5737 5738 5738 5739 5741 5743 5747 5750 5754 5758 5762 5765 5769 5772 5775 5777 5780 5783 5785 5787 5789 5791 5793 5795 5796 5797 5798 5799
5756 5754 5752 5750 5748 5746 5744 5741 5739 5737 5735 5732 5730 5729 5728 5727 5727 5726 5726 5726 5725 5725 5725 5725 5725 5726 5729 5733 5737 5740 5745 5749 5753 5757 5761 5764 5767 5770 5772 5775 5777 5779 5782 5784 5786 5787 5789 5790 5791
5750 5749 5746 5743 5740 5738 5735 5733 5730 5727 5724 5722 5720 5718 5717 5716 5715 5714 5713 5713 5712 5712 5711 5711 5712 5713 5716 5720 5723 5727 5731 5736 5740 5744 5748 5751 5754 5758 5761 5764 5766 5769 5771 5774 5776 5778 5780 5781 5783
5745 5742 5740 5737 5733 5730 5728 5724 5720 5716 5714 5712 5710 5708 5706 5705 5703 5702 5701 5700 5700 5699 5698 5699 5700 5701 5703 5707 5710 5713 5717 5722 5726 5730 5734 5738 5742 5744 5748 5751 5755 5757 5760 5763 5765 5767 5769 5772 5774
5739 5736 5733 5730 5726 5722 5719 5715 5712 5707 5705 5702 5700 5698 5696 5694 5692 5690 5689 5688 5687 5686 5686 5686 5687 5689 5691 5694 5697 5700 5703 5708 5712 5716 5720 5725 5728 5731 5734 5738 5742 5745 5747 5751 5753 5756 5758 5761 5763
5734 5730 5726 5723 5719 5715 5711 5708 5704 5699 5696 5693 5690 5687 5685 5683 5681 5679 5677 5676 5675 5674 5674 5675 5675 5677 5679 5681 5683 5686 5689 5693 5697 5701 5705 5710 5713 5717 5720 5724 5728 5731 5734 5738 5741 5744 5746 5749 5752
5728 5724 5720 5717 5712 5709 5705 5700 5696 5691 5687 5684 5681 5678 5676 5674 5671 5668 5667 5665 5664 5664 5664 5664 5665 5666 5667 5668 5670 5673 5676 5679 5682 5686 5690 5694 5698 5702 5706 5710 5714 5717 5721 5725 5728 5731 5734 5736 5739
5722 5718 5714 5711 5706 5702 5698 5693 5689 5684 5680 5676 5672 5669 5667 5663 5661 5659 5657 5655 5654 5654 5654 5653 5654 5654 5655 5656 5657 5659 5662 5665 5668 5671 5675 5678 5682 5686 5690 5695 5699 5703 5707 5711 5714 5717 5720 5723 5727
5716 5713 5709 5705 5701 5696 5692 5688 5682 5677 5673 5668 5664 5660 5657 5654 5651 5650 5648 5646 5645 5644 5643 5642 5642 5642 5642 5643 5644 5646 5648 5651 5653 5656 5660 5663 5667 5670 5675 5679 5683 5687 5692 5696 5700 5703 5706 5710 5713
5711 5707 5703 5699 5695 5691 5687 5682 5677 5672 5666 5661 5657 5653 5649 5647 5644 5642 5639 5637 5636 5634 5632 5631 5630 5630 5630 5630 5632 5634 5636 5639 5641 5643 5647 5650 5652 5656 5660 5664 5667 5671 5676 5680 5684 5687 5691 5694 5698
5705 5702 5698 5694 5689 5685 5681 5676 5673 5666 5661 5656 5651 5647 5643 5640 5637 5634 5632 5629 5627 5624 5622 5620 5619 5618 5618 5619 5619 5621 5623 5626 5628 5630 5633 5636 5639 5642 5645 5649 5652 5656 5660 5665 5669 5672 5676 5679 5684
5699 5696 5693 5689 5684 5681 5676 5671 5666 5661 5656 5650 5646 5642 5638 5634 5631 5627 5624 5622 5619 5616 5613 5611 5609 5608 5607 5607 5606 5608 5610 5612 5614 5617 5620 5623 5626 5629 5632 5634 5637 5641 5645 5649 5654 5657 5661 5665 5669
5694 5691 5687 5683 5679 5675 5671 5666 5662 5656 5651 5645 5641 5637 5633 5628 5625 5621 5618 5614 5611 5608 5605 5601 5599 5598 5597 5596 5595 5596 5597 5599 5602 5605 5608 5610 5613 5616 5619 5621 5623 5627 5631 5635 5639 5643 5647 5651 5655
5689 5686 5682 5677 5673 5669 5665 5661 5658 5652 5646 5641 5637 5633 5628 5624 5620 5616 5612 5608 5604 5601 5597 5593 5591 5588 5587 5586 5585 5585 5585 5587 5590 5593 5596 5598 5601 5604 5606 5608 5610 5614 5617 5621 5626 5631 5635 5639 5643
5683 5680 5676 5672 5667 5663 5660 5656 5652 5647 5642 5637 5633 5628 5624 5619 5615 5611 5606 5602 5598 5594 5590 5586 5583 5580 5578 5577 5575 5575 5575 5576 5578 5581 5583 5585 5588 5590 5593 5596 5598 5601 5605 5609 5614 5619 5624 5628 5632
5677 5674 5670 5666 5661 5657 5654 5651 5647 5642 5638 5633 5628 5624 5619 5615 5610 5606 5601 5597 5592 5588 5583 5579 5575 5573 5570 5567 5565 5565 5565 5566 5567 5569 5571 5573 5575 5578 5581 5583 5586 5590 5594 5598 5602 5608 5613 5617 5621
5671 5668 5663 5660 5656 5652 5647 5648 5642 5637 5632 5628 5623 5618 5614 5610 5605 5601 5596 5592 5587 5582 5578 5573 5569 5565 5561 5558 5557 5556 5556 5557 5558 5559 5561 5562 5565 5567 5569 5572 5575 5579 5583 5587 5592 5597 5602 5606 5610
5664 5661 5658 5655 5650 5646 5642 5643 5636 5631 5626 5622 5618 5614 5609 5605 5601 5596 5591 5587 5582 5578 5572 5568 5563 5558 5554 5551 5549 5549 5548 5549 5549 5550 5551 5553 5555 5557 5559 5562 5565 5568 5573 5577 5581 5585 5590 5595 5599